Flag for Poland Weather past 2 weeks in Toruń, Poland

Now
34 °F

Overcast.


Feels Like: 31 °F
Forecast: 31 / 36 °F
Wind: 3 mph from South

Location: Torun

Current Time: Jan 28, 2015 at 5:50:19 PM

Latest Report: Jan 28, 2015 at 5:00 PM


Visibility: 6 mi

Pressure: 29.71 "Hg

Humidity: 88%

Dew point: 31 °F

Location of ToruńLocation

Historic Weather in Toruń — Graph

°F

Toruń temperature yesterday

Maximum temperature yesterday: 35 °F (at 9:00 PM)
Minimum temperature yesterday: 27 °F (at 7:00 AM)
Average temperature yesterday: 31 °F

Past Weeks' High & Low Weather Summary

 TemperatureHumidityPressure
High50 °F (Jan 13, 5:00 PM)100% (Jan 18, 8:00 AM)30.26 "Hg (Jan 18, 8:00 AM)
Low25 °F (Jan 22, 7:00 AM)59% (Jan 14, 3:00 PM)29.67 "Hg (Jan 13, 8:00 PM)
Average34 °F88%29.99 "Hg
* Reported Jan 13 4:00 PM — Jan 28 4:00 PM, Toruń, Weather by CustomWeather, © 2014

Note: Actual official high and low records may vary slightly from our data, if they occured in-between our weather recording intervals... More about our weather records

Advertising

Toruń weather history for previous 24 hours

 ConditionsComfort  
Time TempWeatherWind HumidityBarometerVisibility
4:00 PM
Jan 28
34 °FOvercast.3 mph86%29.74 "Hg6 mi
3:00 PM34 °FOvercast.2 mph86%29.78 "Hg7 mi
2:00 PM34 °FOvercast.3 mph83%29.80 "Hg8 mi
1:00 PM34 °FOvercast.2 mph83%29.83 "Hg16 mi
12:00 PM35 °FOvercast.3 mph81%29.84 "Hg22 mi
11:00 AM35 °FOvercast.3 mph81%29.87 "Hg16 mi
10:00 AM34 °FOvercast.2 mph90%29.88 "Hg9 mi
9:00 AM33 °FPartly sunny.2 mph92%29.89 "Hg8 mi
8:00 AM33 °FOvercast.2 mph92%29.90 "Hg8 mi
7:00 AM34 °FOvercast.3 mph91%29.89 "Hg9 mi
6:00 AM34 °FDrizzle. Low clouds.3 mph94%29.89 "Hg6 mi
5:00 AM35 °FDrizzle. Low clouds.3 mph95%29.89 "Hg3 mi
4:00 AM35 °FDrizzle. Low clouds.3 mph95%29.89 "Hg4 mi
3:00 AM35 °FFog.3 mph95%29.89 "Hg6 mi
2:00 AM35 °FLow clouds.2 mph96%29.88 "Hg3 mi
1:00 AM35 °FLight rain. Low clouds.2 mph95%29.88 "Hg3 mi
12:00 AM35 °FLight rain. Low clouds.2 mph96%29.88 "Hg3 mi
11:00 PM
Jan 27
35 °FLight rain. Low clouds.2 mph96%29.87 "Hg2 mi
10:00 PM35 °FFog.2 mph96%29.87 "Hg2 mi
9:00 PM35 °FFog.2 mph96%29.87 "Hg2 mi
8:00 PM35 °FFog.2 mph96%29.86 "Hg2 mi
7:00 PM35 °FFog.1 mph96%29.86 "Hg3 mi
6:00 PM35 °FFog.2 mph96%29.84 "Hg4 mi
5:00 PM34 °FLow clouds.2 mph96%29.83 "Hg2 mi
Weather by CustomWeather, © 2014

See weather overviewHow to use our weather pages